STARLINK-5074 (55438 NORAD) Tracking and Keplerian Element Data

This shows tracking and keplerian element data for the satellite.

Feedback or suggestion? Click here.




ElementValue
Catalog55438
NameSTARLINK-5074
Epoch Orbit1518
Epoch Day127.12776507
Epoch Year2023
RAAN181.3569
Inclination69.9975
Eccentricity0.0003636
Argument of Perigee268.6215
Mean Anonmoly91.4564
Mean Motion15.69903245
Decay Rate-2.07E-05
L11 55438U 23014AZ 23127.12776507 -.00002070 00000+0 -15465-4 0 9990
L22 55438 69.9975 181.3569 0003636 268.6215 91.4564 15.69903245 15181



Live tracking and technical data element details for STARLINK-5074 (NORAD 55438). STARLINK-5074 can be tracked NOW for your location showing map with azimuth and elevation plus other details from your city location.







IsCatalogInMostPopularTable: catalog: 55438, numindb: 1
Update: records affected: 1



GetName: 55438 STARLINK-5074

Hit Count: updated at: Mon, 05 Jun 2023 20:14:16 GMT